FW1555 Weather Reports


time (UTC)temp
C
wind
direction
speed
KPH
gust
KPH
rain 1hr
cm
rain 24hr
cm
rain mn
cm
humidity
%
barometer
mb
20260903171602 27 0 6.4 17.7 0.00 0.97 0.64 78 1013.5
20260903170107 27 262 8.0 19.3 0.00 0.97 0.64 78 1013.6
20260903164554 26 0 0.0 9.7 0.00 0.97 0.64 81 1013.8
20260903163049 26 259 3.2 14.5 0.00 0.97 0.64 81 1013.8
20260903161553 25 259 4.8 19.3 0.00 0.97 0.64 82 1013.9
20260903160050 25 254 0.0 6.4 0.00 0.97 0.64 87 1014.1
20260903154555 25 0 6.4 20.9 0.00 0.97 0.64 88 1014.5
20260903153058 24 0 3.2 12.9 0.00 0.97 0.64 90 1014.5
20260903151558 23 0 1.6 14.5 0.00 0.97 0.64 91 1014.4
20260903150113 23 286 0.0 14.5 0.00 0.97 0.64 92 1014.5
20260903144601 22 0 0.0 12.9 0.00 0.97 0.64 93 1014.5
20260903143100 22 265 3.2 14.5 0.00 0.97 0.64 94 1014.6
20260903141556 22 0 4.8 17.7 0.00 0.97 0.64 95 1014.7
20260903140106 21 273 0.0 6.4 0.00 0.97 0.64 97 1014.5
20260903134601 21 269 1.6 9.7 0.00 0.97 0.64 99 1014.5
20260903133100 21 0 1.6 12.9 0.00 0.97 0.64 100 1014.4
20260903131600 21 0 0.0 11.3 0.00 0.97 0.64 100 1014.5
20260903130117 21 0 0.0 4.8 0.00 0.97 0.64 100 1014.7
20260903124607 20 0 0.0 3.2 0.00 0.97 0.64 100 1014.9
20260903123100 20 0 0.0 0.0 0.00 0.97 0.64 100 1015.1
20260903121553 20 0 0.0 0.0 0.00 0.97 0.64 100 1015.1
20260903120100 20 0 0.0 0.0 0.03 0.97 0.64 100 1014.7
20260903114607 20 0 0.0 0.0 0.03 0.97 0.64 100 1015.1
20260903113058 20 0 0.0 0.0 0.03 0.97 0.64 100 1015.2
20260903111622 19 0 0.0 0.0 0.03 0.97 0.64 100 1015.2
20260903110107 19 0 0.0 0.0 0.00 0.94 0.61 100 1015.2
20260903104631 19 0 0.0 0.0 0.00 0.94 0.61 100 1015.2
20260903103056 19 0 0.0 0.0 0.00 0.94 0.61 100 1015.2
20260903101554 19 0 0.0 3.2 0.00 0.94 0.61 100 1015.2
20260903100051 19 0 0.0 4.8 0.00 0.94 0.61 100 1014.8
20260903094608 19 265 0.0 12.9 0.00 0.97 0.61 100 1014.6
20260903093054 19 0 0.0 6.4 0.00 0.97 0.61 100 1014.5
20260903091551 19 0 1.6 11.3 0.00 0.97 0.61 100 1014.6
20260903090052 19 0 0.0 4.8 0.00 0.97 0.61 100 1015.0
20260903084552 19 0 0.0 0.0 0.00 0.99 0.61 100 1014.9
20260903083059 19 0 0.0 0.0 0.00 0.99 0.61 100 1014.9
20260903081553 18 0 0.0 4.8 0.00 0.99 0.61 100 1015.2
20260903080052 18 0 0.0 0.0 0.03 0.99 0.61 100 1015.7
20260903074604 18 0 0.0 0.0 0.05 0.99 0.61 100 1015.6
20260903073108 18 0 0.0 0.0 0.05 0.99 0.61 100 1015.5
20260903071553 18 0 0.0 0.0 0.05 0.99 0.61 100 1015.5
20260903070051 18 0 0.0 1.6 0.05 0.97 0.58 100 1015.6
20260903064600 18 0 0.0 1.6 0.03 0.97 0.56 100 1015.7
20260903063057 18 0 0.0 0.0 0.05 0.97 0.56 100 1016.0
20260903061612 18 0 0.0 0.0 0.13 0.97 0.56 100 1016.3
20260903060105 18 0 0.0 0.0 0.25 0.94 0.53 100 1016.6
20260903054559 18 0 0.0 1.6 0.36 0.94 0.53 100 1017.0
20260903053107 18 0 0.0 4.8 0.43 0.91 0.51 100 1016.7
20260903051551 18 0 0.0 0.0 0.43 0.84 0.43 100 1017.1
20260903050107 19 0 0.0 0.0 0.28 0.69 0.28 99 1018.1
20260903044548 19 0 1.6 6.4 0.18 0.58 0.18 99 1018.8
20260903043053 19 0 0.0 3.2 0.08 0.48 0.08 99 1018.3
20260903041556 19 0 0.0 0.0 0.00 0.41 0.00 99 1018.3
20260903040050 19 0 0.0 0.0 0.00 0.41 0.00 98 1018.3
20260903034557 19 0 0.0 0.0 0.00 0.41 0.41 98 1018.3
20260903033054 19 0 0.0 0.0 0.00 0.41 0.41 98 1018.4
20260903031552 19 0 0.0 0.0 0.00 0.41 0.41 98 1018.2
20260903030109 19 0 0.0 0.0 0.00 0.41 0.41 98 1018.1
20260903024553 19 0 0.0 0.0 0.00 0.41 0.41 98 1018.4
20260903023051 19 0 0.0 0.0 0.00 0.41 0.41 98 1018.2
20260903021549 19 0 0.0 0.0 0.00 0.41 0.41 98 1018.7
20260903020100 18 0 0.0 0.0 0.00 0.41 0.41 97 1018.6
20260903014609 18 0 0.0 0.0 0.00 0.41 0.41 97 1018.6
20260903013105 18 0 0.0 0.0 0.00 0.41 0.41 97 1018.9
20260903011612 18 0 0.0 0.0 0.00 0.41 0.41 97 1019.0
20260903010117 18 0 0.0 0.0 0.00 0.41 0.41 97 1019.3
20260903004554 18 0 0.0 3.2 0.00 0.48 0.41 97 1019.1
20260903003054 18 0 0.0 0.0 0.00 0.48 0.41 97 1019.6
20260903001601 18 0 0.0 0.0 0.00 0.48 0.41 97 1019.0
20260903000059 18 0 0.0 1.6 0.00 0.48 0.41 97 1018.9
20260902234559 18 0 0.0 0.0 0.00 0.48 0.41 97 1018.6
20260902233051 18 0 0.0 0.0 0.00 0.48 0.41 97 1018.7
20260902231608 18 0 0.0 3.2 0.00 0.48 0.41 97 1018.9
20260902230100 18 0 0.0 0.0 0.00 0.48 0.41 97 1018.9
20260902224606 18 0 0.0 0.0 0.00 0.48 0.41 96 1019.1
20260902223056 18 360 0.0 1.6 0.00 0.48 0.41 96 1019.6
20260902221627 18 0 0.0 1.6 0.00 0.48 0.41 96 1019.4
20260902214602 19 0 0.0 1.6 0.00 0.48 0.41 96 1019.8
20260902213053 19 0 0.0 1.6 0.00 0.48 0.41 96 1019.5
20260902211602 19 0 0.0 0.0 0.00 0.48 0.41 96 1019.4
20260902210059 19 0 0.0 0.0 0.00 0.48 0.41 96 1019.5
20260902204558 20 0 0.0 1.6 0.00 0.48 0.41 96 1019.6
20260902203055 20 0 0.0 4.8 0.00 0.48 0.41 98 1019.3
20260902201559 19 0 0.0 0.0 0.00 0.48 0.41 98 1019.5
20260902200059 19 0 0.0 0.0 0.05 0.48 0.41 98 1019.6
20260902194558 19 0 0.0 1.6 0.10 0.48 0.41 99 1019.6
20260902193105 19 0 0.0 0.0 0.28 0.48 0.41 98 1019.7
20260902191631 19 0 0.0 0.0 0.33 0.48 0.41 98 1020.1
20260902190100 18 0 0.0 0.0 0.28 0.43 0.36 97 1020.2
20260902184600 19 0 0.0 1.6 0.23 0.41 0.30 96 1020.4
20260902183122 20 0 0.0 0.0 0.03 0.20 0.10 94 1020.8
20260902181607 20 0 0.0 0.0 0.00 0.18 0.08 93 1020.4
20260902180105 20 0 0.0 0.0 0.00 0.18 0.08 92 1020.0
20260902174558 20 0 0.0 1.6 0.00 0.23 0.08 91 1020.1
20260902173105 20 0 0.0 6.4 0.00 0.23 0.08 91 1020.2